Temp
6 7 7 6 6 6 6 6 7 9 11 13 14 15 15 16 16 17 18 18 18 19 20 21 21 22 23 28 31 27 28 27 26 27 31 33 33 33 33 34 33 33 34 33 32 32 32
6 6 6 6 6 6 6 7 8 9 10 12 14 15 15 16 16 17 18 18 19 19 20 21 21 22 23 28 29 28 28 27 28 29 31 33 33 34 33 33 33 33 33 33 33 32 32
7 7 6 6 6 7 7 7 7 9 10 12 14 15 15 15 16 17 17 18 19 20 21 21 22 21 26 30 29 29 28 29 29 30 32 32 32 32 33 32 33 33 32 33 33 33 32
7 7 7 6 6 7 7 7 7 7 9 11 13 15 15 16 16 17 17 19 20 21 21 22 22 21 27 28 29 28 29 29 30 30 31 31 31 32 32 33 32 32 32 32 31 32 32
7 7 6 6 6 7 7 6 7 7 8 9 12 14 15 16 16 17 18 19 20 21 21 21 21 24 29 26 28 29 29 30 30 30 30 29 31 31 32 31 31 32 31 28 23 33 33
7 7 7 6 6 6 6 6 6 7 8 9 11 13 14 16 17 17 19 19 20 20 21 21 24 26 28 30 30 30 29 30 31 31 30 30 31 31 31 31 29 29 28 27 31 33 32
8 7 7 7 6 6 6 6 6 7 7 8 11 13 14 16 17 16 19 22 24 24 24 28 28 28 28 29 27 28 29 29 31 30 29 31 30 30 31 32 32 32 31 31 33 34 32
8 8 8 7 6 6 6 6 6 7 7 8 9 13 14 16 17 17 18 23 19 17 24 27 27 26 26 27 29 30 29 29 29 29 30 31 29 31 32 32 31 31 30 31 32 33 31
8 8 8 8 7 6 6 6 7 7 7 7 9 12 14 15 16 17 18 17 16 17 23 28 27 27 28 27 29 30 30 30 30 29 30 30 31 32 31 31 30 30 30 30 31 32 32
8 8 8 8 8 7 7 7 7 7 7 7 9 11 13 16 16 17 19 16 16 16 24 27 26 28 28 28 28 31 30 31 30 29 30 30 31 31 30 30 30 30 32 31 30 31 30
8 8 8 7 8 8 7 7 7 7 7 7 8 11 13 13 13 20 16 15 16 17 23 27 27 27 30 28 30 30 30 31 29 30 30 29 30 30 29 30 31 30 31 30 30 30 30
8 8 8 8 7 7 8 7 7 7 7 7 8 10 12 13 13 16 15 15 17 21 18 26 28 27 27 28 29 30 29 30 30 30 30 30 32 31 30 31 31 30 30 30 30 30 28
7 8 8 8 7 7 7 7 7 7 7 7 8 10 11 11 18 13 14 18 22 17 26 27 26 27 27 27 28 28 27 27 28 27 28 29 29 30 30 29 30 29 28 27 27 28 28
8 7 7 8 8 7 7 7 7 6 7 7 8 10 11 12 14 13 15 21 16 23 26 26 26 27 27 29 28 28 28 28 29 29 29 28 27 29 30 28 29 29 29 27 25 27 29
7 7 7 8 7 7 7 6 7 6 6 7 9 12 12 13 12 13 19 17 19 23 26 25 26 26 27 28 27 28 28 28 29 29 28 28 29 30 30 30 30 29 28 29 27 28 27
7 7 7 7 7 7 7 6 6 6 6 7 9 13 16 13 12 15 18 18 21 23 23 24 25 27 27 27 26 27 27 28 29 30 29 28 27 30 29 29 29 28 30 26 27 21 24
6 6 7 7 7 7 7 7 6 6 6 7 9 16 14 12 13 18 16 19 22 23 23 23 25 26 26 28 27 27 28 26 26 29 29 28 27 28 28 27 27 27 27 27 27 27 25
6 6 7 7 7 7 7 7 6 6 6 6 13 15 13 13 17 19 18 20 19 22 22 23 23 24 25 26 25 26 27 26 25 27 26 27 27 26 27 29 29 29 28 27 25 24 26
6 6 6 7 7 7 7 6 6 6 6 10 14 17 13 14 16 18 20 20 20 21 22 22 22 24 24 24 24 25 26 24 25 25 25 27 25 24 26 27 26 26 27 28 27 27 25
5 6 6 7 7 7 7 6 6 6 6 6 15 12 15 15 18 19 19 18 19 20 21 22 23 22 22 23 24 24 24 23 23 24 16 21 25 25 24 26 27 25 26 27 26 24 25
5 5 5 6 7 6 6 6 6 6 6 6 14 13 15 12 16 17 19 20 19 19 20 20 21 21 22 22 23 23 24 23 23 17 22 24 23 25 25 27 27 27 27 26 25 25 25
5 5 5 6 7 6 6 6 6 6 5 7 12 15 15 17 17 17 16 19 19 20 20 19 20 21 22 21 22 22 23 22 23 23 23 23 23 24 23 25 26 26 27 27 27 27 27
5 5 5 5 5 7 6 6 6 6 5 9 13 12 13 15 15 16 18 18 19 20 17 19 20 20 20 20 19 19 19 20 20 20 21 22 22 22 21 24 25 24 26 27 27 28 27
5 5 5 5 5 6 6 6 6 6 6 10 12 13 13 14 16 17 18 18 18 18 17 17 18 19 16 17 18 18 19 19 20 20 21 20 21 21 20 22 19 24 27 27 27 27 28
5 5 5 4 5 6 6 6 6 6 6 7 9 10 13 14 16 16 16 16 17 15 17 16 16 16 16 17 17 17 17 18 19 20 21 21 20 19 19 20 22 24 26 25 25 26 28
5 5 5 4 5 6 6 6 6 6 5 6 8 9 12 14 15 16 15 16 15 15 14 15 14 14 16 18 16 14 17 18 19 20 22 21 20 19 19 19 19 23 26 25 26 23 22
5 5 5 5 6 6 5 6 6 6 6 7 8 6 12 13 13 15 15 15 16 17 16 14 13 14 15 14 14 15 17 20 18 19 19 19 19 17 18 18 21 24 24 24 22 22 20
4 5 4 5 6 6 5 6 6 6 6 7 7 7 10 13 11 11 12 13 13 15 14 13 13 13 13 13 14 15 16 18 18 19 20 19 18 17 18 17 17 22 22 20 18 19 19
4 4 4 5 6 5 5 6 5 6 6 7 8 7 9 12 10 9 9 9 10 11 14 12 14 14 14 14 15 16 15 17 17 16 20 17 20 19 20 19 21 20 19 19 18 18 18
Height
861 859 858 856 854 852 849 846 842 839 836 833 830 827 824 821 817 814 811 809 807 805 804 803 802 800 798 792 781 781 784 787 790 791 785 783 782 781 785 776 774 779 769 774 777 778 777
860 858 857 855 853 851 849 846 842 839 836 833 830 827 824 820 816 812 809 806 804 803 802 801 800 799 798 793 782 783 785 788 789 789 784 781 778 775 778 779 778 769 772 770 773 775 778
858 857 856 854 852 850 848 846 843 839 836 833 829 827 823 819 815 810 806 803 801 800 799 799 798 798 794 783 782 783 785 786 787 786 781 781 781 781 774 780 772 773 783 770 768 771 774
857 856 855 853 852 849 847 845 842 839 836 832 829 826 822 818 814 809 805 801 798 796 796 796 796 799 788 782 783 783 784 785 786 786 785 783 786 783 781 774 778 782 777 787 776 772 771
854 854 853 852 850 848 846 844 841 838 835 832 829 826 822 817 812 807 803 798 796 795 794 795 796 795 782 781 782 781 782 782 785 787 788 790 787 784 779 791 787 774 789 803 819 766 772
852 851 851 850 849 847 845 843 841 838 835 831 828 824 821 816 811 807 801 798 796 795 795 796 794 795 780 775 776 778 781 781 782 785 787 789 786 790 786 785 807 798 809 807 783 767 770
848 848 848 847 847 846 844 842 840 837 834 830 827 823 820 816 811 807 801 798 796 792 791 778 780 776 776 776 780 780 780 783 779 783 794 784 794 796 782 776 772 774 784 782 770 760 770
845 845 845 844 843 843 842 840 838 836 833 830 826 822 819 814 811 808 804 799 806 810 792 777 779 781 781 779 776 773 778 783 784 791 781 785 796 779 770 770 781 785 789 787 772 760 774
841 841 841 841 840 840 839 837 835 833 830 827 824 821 818 814 811 810 809 810 809 808 795 773 774 774 775 778 773 769 773 773 779 786 781 787 777 770 776 779 789 789 791 786 785 770 769
835 837 837 837 837 837 836 835 833 831 829 826 823 820 818 814 814 811 809 811 810 809 792 773 776 768 771 772 775 761 765 768 775 781 778 777 770 774 782 787 783 791 771 778 781 783 792
829 830 832 833 833 833 833 832 831 829 827 825 822 819 818 817 815 810 814 811 810 809 809 767 768 765 759 770 760 764 763 764 775 774 776 781 777 777 785 781 775 786 773 781 780 781 780
821 823 826 828 829 830 830 829 828 827 825 823 820 819 817 817 816 815 812 811 811 810 828 773 760 766 770 765 761 756 766 763 763 770 767 774 759 767 773 769 770 774 784 783 781 785 802
813 816 819 822 825 826 826 826 826 825 823 820 818 817 816 816 811 812 812 810 807 826 772 767 766 761 763 766 766 767 773 776 780 791 785 777 773 769 770 782 773 783 794 810 808 801 801
806 809 812 815 818 821 822 823 823 822 821 818 815 814 813 813 812 812 812 804 826 782 771 761 761 760 767 756 764 765 765 774 766 768 773 785 791 771 766 780 780 780 786 806 825 807 787
796 799 804 808 811 814 818 819 820 820 819 817 814 811 810 808 809 811 806 811 799 777 762 768 765 768 765 757 765 763 766 764 758 761 779 778 775 755 760 763 771 780 789 774 791 785 796
790 792 796 801 805 808 812 815 817 817 817 816 814 809 802 805 807 809 802 795 783 771 772 772 771 758 761 760 770 765 763 756 757 752 757 766 785 759 763 769 768 776 765 798 796 837 824
782 784 788 793 798 802 807 810 813 815 815 815 813 800 797 802 805 799 799 789 777 772 774 774 766 761 761 751 756 759 757 762 762 753 757 764 773 775 769 780 778 782 787 783 785 791 810
773 778 780 785 791 796 801 805 808 811 813 813 804 795 796 799 797 784 786 779 778 773 774 772 770 764 761 760 764 761 760 760 768 762 772 764 770 783 774 762 757 759 768 776 796 805 790
771 774 773 777 782 788 794 799 803 808 810 807 794 783 795 796 787 778 775 775 780 774 772 772 772 767 766 767 773 763 762 769 768 769 771 761 776 792 780 772 773 778 770 768 769 773 788
765 765 766 767 773 781 787 794 799 803 807 810 788 792 786 790 775 771 773 779 781 775 771 770 769 770 772 771 765 767 771 776 775 772 787 778 771 775 786 770 764 782 776 769 776 791 787
756 758 760 764 765 773 781 788 794 799 804 808 789 783 777 787 778 774 766 767 771 777 776 776 775 774 773 776 771 773 766 773 776 784 776 775 780 771 768 762 759 757 762 767 775 777 781
749 752 756 759 759 767 775 782 789 795 801 804 788 776 778 764 769 772 771 766 765 766 771 776 776 771 772 775 771 774 767 774 774 773 774 773 781 774 776 770 767 767 758 755 756 757 761
744 746 750 752 758 760 768 776 784 789 796 793 785 783 779 769 771 768 762 764 764 760 781 771 773 776 778 776 781 784 786 787 786 786 781 780 780 781 786 769 764 772 761 756 752 746 749
738 741 744 746 752 753 763 771 778 783 788 789 784 783 778 773 764 763 758 763 766 769 776 780 778 778 789 790 790 790 790 788 786 784 784 786 781 782 790 778 796 765 747 743 747 744 739
731 734 738 742 747 749 758 766 774 780 785 790 788 788 778 770 762 763 770 771 771 782 779 783 785 792 793 791 791 790 791 788 783 779 778 780 787 791 795 788 771 760 747 751 751 749 735
725 728 733 737 739 744 752 762 770 777 783 788 788 788 782 771 765 768 772 772 777 780 789 787 798 798 794 785 790 800 787 782 777 771 765 772 779 788 786 789 789 761 746 743 742 759 755
721 724 727 729 730 736 748 759 767 775 781 785 787 787 784 777 779 775 774 775 773 774 779 790 796 798 797 795 798 791 783 768 776 772 775 777 778 790 789 787 771 748 749 749 766 766 763
718 720 721 722 724 733 746 756 765 773 779 782 785 786 784 778 788 788 786 783 787 782 785 794 800 800 800 799 792 788 780 769 774 768 765 768 779 784 785 790 790 755 756 767 773 770 771
716 717 719 719 722 733 745 755 765 772 777 782 783 786 786 782 789 793 796 796 796 795 789 798 791 792 791 792 785 779 785 777 772 779 765 778 762 766 765 767 759 763 767 770 772 773 774
Wind_Speed
10 10 10 11 11 12 14 16 16 16 16 15 15 16 17 19 20 21 19 17 15 13 11 10 9 10 5 9 7 4 15 13 15 14 16 12 12 11 12 6 4 9 3 1 1 3 2
9 10 10 10 12 13 14 16 17 16 17 17 16 16 17 19 21 23 19 17 16 14 13 10 8 8 8 13 3 6 13 14 16 17 16 11 10 4 9 8 8 4 6 1 3 3 4
9 9 9 10 12 13 14 15 16 17 17 17 17 17 18 20 22 22 19 19 16 15 13 10 8 6 10 5 2 7 12 17 18 16 14 12 4 10 5 8 4 9 12 12 13 4 4
10 9 9 10 11 12 13 14 16 17 18 19 17 17 19 21 23 21 21 19 16 13 10 8 7 6 7 2 5 8 12 16 16 13 12 5 7 11 8 5 7 12 16 12 9 7 4
13 12 11 11 11 12 12 14 16 18 19 20 19 18 19 21 24 21 23 16 6 6 3 5 5 7 8 4 11 11 12 16 15 12 10 4 10 12 10 13 15 16 10 3 10 11 5
15 14 13 13 12 12 12 13 15 17 19 20 19 18 19 21 23 19 19 6 3 1 2 4 6 5 8 9 14 12 13 6 15 12 11 11 9 12 12 14 13 4 6 11 12 5 4
15 17 17 15 14 13 12 12 14 17 19 20 18 17 18 19 19 17 17 6 6 6 10 6 2 4 1 4 6 13 16 13 13 14 16 17 14 16 19 16 15 16 12 15 15 13 6
17 15 17 16 15 14 14 14 16 17 18 18 18 16 16 17 15 13 9 4 5 5 8 16 12 9 6 3 10 15 18 14 15 17 18 16 17 18 17 17 6 15 15 17 15 12 8
22 19 14 15 16 15 15 15 17 17 17 17 17 16 15 15 8 5 8 7 7 4 7 7 11 14 12 11 11 18 18 20 18 18 18 17 14 19 16 12 12 15 16 15 16 6 10
27 24 21 16 15 16 16 16 17 16 16 16 16 15 14 13 1 6 1 8 6 1 5 10 8 8 11 8 9 16 23 20 20 19 19 16 17 13 11 13 14 16 12 11 13 13 11
31 29 25 22 17 17 17 17 16 15 15 15 15 13 11 9 8 3 4 7 2 3 4 3 9 5 8 14 5 17 16 19 19 20 13 17 16 14 14 15 12 15 12 11 15 15 14
33 31 29 26 23 19 17 16 16 15 15 15 15 13 11 2 5 4 5 6 3 3 7 7 7 10 13 19 11 11 12 14 15 18 18 17 12 13 16 14 13 8 14 14 14 12 13
33 33 31 29 25 22 18 16 15 15 15 15 15 11 10 7 1 4 6 5 5 5 3 9 9 11 15 16 18 13 18 18 13 15 16 16 19 13 11 11 10 11 11 10 12 11 11
34 35 33 31 27 24 20 17 15 14 15 16 16 11 9 9 5 5 5 7 6 8 19 3 3 10 14 13 17 17 16 17 21 19 12 16 17 19 13 18 14 14 14 10 12 12 13
29 36 33 33 30 26 22 19 16 14 13 15 13 6 8 6 7 5 7 9 7 10 5 7 8 13 15 11 4 17 18 17 19 21 17 12 18 2 12 16 16 16 9 10 14 15 10
31 35 34 33 33 27 24 20 16 13 12 11 7 8 12 10 8 9 9 15 12 4 3 7 16 12 15 17 12 10 14 11 18 15 18 15 12 13 10 8 11 11 9 9 9 4 15
28 27 35 34 35 29 26 22 17 13 11 9 8 5 11 10 9 7 10 15 18 6 8 8 12 10 14 10 14 14 7 7 6 12 13 16 12 13 10 13 16 9 13 12 10 10 11
22 31 35 37 35 31 27 23 18 14 10 9 10 8 10 14 8 9 13 17 7 11 12 8 7 8 10 11 10 14 11 1 0 6 12 16 9 15 15 15 11 15 13 17 11 16 10
25 29 29 39 36 33 28 25 19 15 12 7 5 7 8 14 8 11 12 15 10 14 14 10 9 8 6 9 8 7 8 7 1 9 3 7 9 11 16 10 7 11 16 14 13 14 17
25 26 35 36 39 35 30 27 21 17 13 7 4 2 5 8 11 13 17 15 15 11 12 8 11 5 8 10 7 7 8 6 1 4 5 3 10 12 13 16 11 13 19 16 15 11 13
23 25 21 27 39 36 33 29 24 18 14 7 5 4 8 6 12 14 13 12 17 11 12 12 11 13 12 11 12 11 9 8 7 5 4 4 11 13 14 18 17 17 15 17 19 18 18
22 24 24 25 42 36 35 32 27 22 17 9 3 4 4 5 15 16 12 17 17 16 12 14 15 14 13 11 11 9 12 4 8 5 5 3 8 9 13 14 17 21 21 19 18 19 21
22 25 26 21 23 40 38 35 30 26 21 9 11 7 5 6 9 13 14 15 15 14 4 10 12 9 10 3 6 5 6 4 5 4 6 5 5 8 14 14 17 19 19 20 20 21 18
22 25 25 23 22 43 39 36 32 30 27 10 5 5 5 5 10 12 12 13 13 12 9 7 4 10 6 1 1 6 8 9 10 11 9 7 9 8 9 12 14 12 15 16 18 20 21
23 25 29 25 23 44 41 37 33 30 26 10 4 4 6 8 10 6 10 11 9 4 7 8 5 7 1 3 6 6 8 9 15 17 16 13 11 8 10 11 17 18 13 9 14 18 18
22 24 32 32 26 48 42 38 34 29 23 11 9 6 5 5 7 11 12 11 8 10 6 6 3 0 3 4 5 5 7 9 8 6 15 18 14 11 11 14 18 18 21 5 8 13 20
19 22 25 29 37 45 44 38 33 29 23 14 8 6 8 5 2 3 8 10 4 8 6 8 6 5 4 4 6 8 10 8 11 10 6 10 13 13 13 14 15 14 10 8 11 4 16
16 19 17 20 45 46 43 38 35 29 25 15 10 5 5 4 5 0 1 3 3 5 6 7 5 3 4 6 6 5 6 7 9 13 11 10 8 11 11 16 15 8 5 6 6 8 11
12 16 18 8 44 48 44 40 35 29 24 14 10 5 2 2 7 6 7 8 8 9 2 4 1 6 3 5 5 3 4 4 9 10 10 13 10 8 8 9 3 6 6 5 6 7 10
Wind_Direction
325 328 335 339 343 345 344 344 346 349 349 346 344 344 344 340 337 335 333 326 319 312 300 295 306 316 303 220 260 125 170 180 186 204 217 212 228 237 252 243 220 243 133 86 103 226 277
312 316 322 327 331 334 338 340 343 346 346 344 341 341 342 337 335 333 330 323 315 307 295 287 292 296 245 253 81 146 173 182 200 211 222 223 240 320 304 262 268 31 291 359 219 122 175
303 309 314 319 323 327 333 336 339 342 345 341 338 338 338 335 333 331 328 320 311 301 291 276 273 260 263 251 224 187 189 198 205 210 230 226 299 257 285 247 248 272 260 218 208 183 212
288 294 301 310 317 322 327 331 335 338 342 341 336 336 336 334 333 329 326 317 308 300 286 259 241 224 265 177 223 199 195 203 211 219 254 313 253 271 271 328 246 249 241 269 66 204 184
279 282 287 298 306 316 322 326 330 334 338 340 336 334 336 333 333 329 328 317 314 329 289 189 188 228 245 178 207 197 197 192 195 212 225 268 249 249 212 245 245 224 263 118 217 216 275
273 276 281 288 294 303 312 319 324 328 332 334 334 332 335 333 333 331 333 325 298 263 154 201 250 226 214 220 179 193 191 207 188 201 212 227 230 234 235 243 254 26 254 274 281 258 207
271 263 272 278 283 290 298 307 315 322 326 329 331 329 333 333 333 340 345 287 220 195 216 235 91 243 154 158 178 208 189 197 209 194 214 206 223 232 242 240 273 293 281 303 296 298 254
260 269 269 272 274 281 290 300 308 317 322 326 330 327 331 332 332 354 341 3 29 342 290 227 243 273 252 272 208 206 178 195 205 208 213 223 226 244 251 267 262 267 280 275 289 295 328
251 253 263 274 271 275 282 293 303 313 319 325 329 327 330 333 329 357 36 35 332 305 259 181 223 229 208 210 229 197 190 202 202 219 226 233 223 221 247 263 253 263 268 282 290 264 256
248 248 251 255 270 274 276 284 296 305 314 322 326 325 331 335 251 330 78 351 343 295 266 175 202 220 196 221 239 238 192 211 231 226 227 240 240 253 250 242 257 260 263 283 258 276 270
248 246 247 249 252 270 274 279 288 297 306 317 321 322 326 338 316 276 8 341 344 263 282 157 152 100 188 198 107 199 197 218 229 221 240 232 236 243 237 237 245 262 283 298 283 278 290
246 245 244 245 248 253 267 272 280 290 301 309 315 318 319 339 260 282 314 318 255 230 243 191 170 192 191 208 209 148 184 229 230 242 224 248 249 233 242 246 249 296 274 259 257 260 260
246 244 243 241 246 247 256 264 271 284 297 304 307 303 299 275 352 311 310 228 223 180 181 197 193 187 203 194 210 197 199 199 205 211 221 221 231 222 243 247 233 244 244 254 247 239 252
249 242 241 239 239 243 248 255 263 277 292 301 306 296 281 229 247 283 237 217 209 246 227 25 231 192 206 200 210 206 204 213 214 212 231 224 223 220 184 236 242 205 236 236 253 266 279
263 250 239 237 235 235 241 246 253 268 286 298 311 279 240 239 212 210 227 218 208 244 289 204 191 219 207 199 246 208 221 220 215 219 233 249 236 112 199 219 233 245 238 271 288 285 279
265 242 240 236 234 229 234 237 245 260 277 296 300 255 232 191 184 205 224 236 224 246 289 244 233 211 221 197 195 197 202 226 239 209 230 249 258 229 193 225 250 262 257 219 239 258 266
258 263 238 233 233 226 226 229 234 249 265 286 262 226 141 169 179 210 216 224 235 213 244 239 241 246 248 235 190 211 233 125 297 234 220 235 245 240 173 213 225 197 235 236 261 234 247
264 262 238 232 226 222 221 221 223 235 248 262 258 220 159 167 199 209 220 213 248 229 220 237 280 254 243 224 221 243 225 209 233 232 225 231 234 235 220 238 241 268 220 224 228 236 255
248 246 258 226 224 218 214 215 215 222 218 272 245 205 168 196 212 214 215 213 223 225 219 211 226 232 209 227 235 246 209 82 74 210 277 216 224 241 246 186 206 240 246 253 250 244 241
247 245 237 223 219 213 209 209 210 213 213 227 257 185 154 207 249 230 207 214 208 226 247 228 237 198 208 226 222 191 214 157 247 49 330 338 233 233 235 245 215 215 246 236 231 240 248
249 248 242 239 215 209 205 204 204 202 204 212 235 233 193 194 220 211 226 212 208 187 228 211 213 221 217 229 224 220 226 150 204 147 205 251 241 246 258 272 280 271 214 229 226 240 244
250 243 232 225 208 212 201 201 197 193 192 227 209 218 180 219 204 211 205 217 211 195 188 208 230 213 226 236 228 252 235 195 249 158 233 192 259 263 261 260 261 263 267 265 251 230 244
249 239 230 235 250 212 198 197 194 190 184 213 218 288 289 165 205 200 201 214 212 187 215 285 211 175 211 187 43 30 334 319 312 283 263 251 253 243 255 260 262 254 249 256 261 257 244
244 235 228 236 244 200 197 195 194 190 192 235 217 268 245 221 217 206 213 207 211 178 174 167 199 218 74 71 260 234 246 256 250 241 241 266 242 254 266 277 249 260 265 270 286 257 259
240 232 225 228 225 197 195 193 193 193 191 216 213 234 241 234 212 164 185 183 168 142 177 169 101 52 24 220 226 232 227 240 242 239 233 227 248 262 246 252 258 258 258 243 257 262 267
238 230 222 218 234 197 194 191 189 189 190 200 205 234 273 234 215 182 186 174 174 182 150 143 114 118 225 232 197 223 216 210 203 206 217 222 215 240 242 249 251 264 268 349 294 257 7
234 236 235 223 202 192 188 186 186 185 183 184 192 205 235 223 69 206 182 191 209 180 181 149 164 174 244 190 215 230 233 242 243 223 181 203 218 217 242 254 262 269 343 301 240 302 357
234 231 230 234 184 187 183 186 184 182 176 177 167 183 244 198 122 316 73 142 136 234 183 119 156 216 190 200 210 226 251 234 226 253 248 209 198 220 240 245 254 8 289 297 25 356 359
235 228 227 205 184 184 184 180 180 177 173 165 156 147 108 128 107 99 69 48 23 28 19 184 27 150 164 202 224 244 239 266 238 241 224 260 266 258 234 221 101 81 43 40 4 352 351